Location: Kellogg
(38.0159°N, 90.0546°W)
Time: 18:59:02
(UTC+00:00)

S-56A Canister/Altair - Pass Details

Date: 22 September 2024
Orbit: 636 x 2487 km, 38.9° (Epoch: 04 October)

Event Time Altitude Azimuth Distance (km) Brightness Sun altitude
Rises 02:03:14 0° 282° (WNW) 3,278 12.1 -25.0°
Reaches altitude 10° 02:05:21 10° 281° (W) 2,490 11.1 -25.4°
Maximum altitude 02:11:13 80° 195° (SSW) 1,116 8.2 -26.4°
Enters shadow 02:12:54 57° 121° (ESE) 1,362 8.3 -26.7°
Drops below altitude 10° 02:20:11 10° 110° (ESE) 3,705 - -28.1°
Sets 02:23:58 0° 109° (ESE) 4,992 - -28.7°
